Time,TemperatureF,DewpointF,PressureIn,WindDirection,WindDirectionDegrees,WindSpeedMPH,WindSpeedGustMPH,Humidity,HourlyPrecipIn,Conditions,Clouds,dailyrainin,SoftwareType,DateUTC
2013-11-21 00:03:00,41.2,36.7,30.35,ENE,65,0.0,0.0,84,0.00,,,0.00,LWC V2.00 B2112,2013-11-21 05:03:00,
2013-11-21 00:08:00,41.1,36.6,30.35,NE,34,0.0,0.0,84,0.00,,,0.00,LWC V2.00 B2112,2013-11-21 05:08:00,
2013-11-21 00:13:00,41.1,36.6,30.35,NE,34,0.0,0.0,84,0.00,,,0.00,LWC V2.00 B2112,2013-11-21 05:13:00,
2013-11-21 00:18:00,40.8,36.3,30.35,NE,34,0.0,0.0,84,0.00,,,0.00,LWC V2.00 B2112,2013-11-21 05:18:00,
2013-11-21 00:23:00,40.6,36.2,30.35,NE,34,0.0,0.0,84,0.00,,,0.00,LWC V2.00 B2112,2013-11-21 05:23:00,
2013-11-21 00:28:00,40.5,36.4,30.35,NE,34,0.0,0.0,85,0.00,,,0.00,LWC V2.00 B2112,2013-11-21 05:28:00,
2013-11-21 00:33:00,40.3,36.2,30.36,NE,34,0.0,0.0,85,0.00,,,0.00,LWC V2.00 B2112,2013-11-21 05:33:00,
2013-11-21 00:38:00,40.1,36.3,30.36,NE,34,0.0,0.0,86,0.00,,,0.00,LWC V2.00 B2112,2013-11-21 05:38:00,
2013-11-21 00:43:00,39.9,36.1,30.36,NE,34,0.0,0.0,86,0.00,,,0.00,LWC V2.00 B2112,2013-11-21 05:43:00,
2013-11-21 00:48:00,39.9,36.3,30.36,NW,311,0.0,0.0,87,0.00,,,0.00,LWC V2.00 B2112,2013-11-21 05:48:00,
2013-11-21 00:53:00,40.1,36.5,30.36,NW,311,0.0,0.0,87,0.00,,,0.00,LWC V2.00 B2112,2013-11-21 05:53:00,
2013-11-21 00:58:00,40.1,36.8,30.36,NW,311,0.0,0.0,88,0.00,,,0.00,LWC V2.00 B2112,2013-11-21 05:58:00,
2013-11-21 01:03:00,40.1,36.8,30.36,NW,311,0.0,0.0,88,0.00,,,0.00,LWC V2.00 B2112,2013-11-21 06:03:00,
2013-11-21 01:08:00,40.1,36.8,30.36,NW,311,0.0,0.0,88,0.00,,,0.00,LWC V2.00 B2112,2013-11-21 06:08:00,
2013-11-21 01:13:00,40.2,36.6,30.36,NW,311,0.0,0.0,87,0.00,,,0.00,LWC V2.00 B2112,2013-11-21 06:13:00,
2013-11-21 01:18:00,40.2,36.6,30.36,NW,311,0.0,0.0,87,0.00,,,0.00,LWC V2.00 B2112,2013-11-21 06:18:00,
2013-11-21 01:23:00,40.2,36.6,30.36,NW,311,0.0,0.0,87,0.00,,,0.00,LWC V2.00 B2112,2013-11-21 06:23:00,
2013-11-21 01:28:00,40.2,36.6,30.36,NW,311,0.0,0.0,87,0.00,,,0.00,LWC V2.00 B2112,2013-11-21 06:28:00,
2013-11-21 01:33:00,40.2,36.6,30.37,NW,311,0.0,0.0,87,0.00,,,0.00,LWC V2.00 B2112,2013-11-21 06:33:00,
2013-11-21 01:38:00,40.1,36.5,30.37,NW,311,0.0,0.0,87,0.00,,,0.00,LWC V2.00 B2112,2013-11-21 06:38:00,
2013-11-21 01:43:00,40.1,36.5,30.37,NW,311,0.0,0.0,87,0.00,,,0.00,LWC V2.00 B2112,2013-11-21 06:43:00,
2013-11-21 01:48:00,40.1,36.5,30.37,NW,311,0.0,0.0,87,0.00,,,0.00,LWC V2.00 B2112,2013-11-21 06:48:00,
2013-11-21 01:53:00,39.9,36.3,30.37,NW,311,0.0,0.0,87,0.00,,,0.00,LWC V2.00 B2112,2013-11-21 06:53:00,
2013-11-21 01:58:00,39.9,36.3,30.37,NW,311,0.0,0.0,87,0.00,,,0.00,LWC V2.00 B2112,2013-11-21 06:58:00,
2013-11-21 02:03:00,39.8,36.5,30.37,NW,311,0.0,0.0,88,0.00,,,0.00,LWC V2.00 B2112,2013-11-21 07:03:00,
2013-11-21 02:08:00,39.9,36.6,30.37,North,7,0.0,0.0,88,0.00,,,0.00,LWC V2.00 B2112,2013-11-21 07:08:00,
2013-11-21 02:13:00,40.1,36.8,30.37,North,8,0.0,0.0,88,0.00,,,0.00,LWC V2.00 B2112,2013-11-21 07:13:00,
2013-11-21 02:18:00,40.3,36.7,30.36,East,84,0.0,0.0,87,0.00,,,0.00,LWC V2.00 B2112,2013-11-21 07:18:00,
2013-11-21 02:23:00,40.5,36.9,30.36,SW,230,0.0,0.0,87,0.00,,,0.00,LWC V2.00 B2112,2013-11-21 07:23:00,
2013-11-21 02:28:00,40.5,36.6,30.36,SW,230,0.0,0.0,86,0.00,,,0.00,LWC V2.00 B2112,2013-11-21 07:28:00,
2013-11-21 02:33:00,40.5,36.6,30.36,SW,229,0.0,0.0,86,0.00,,,0.00,LWC V2.00 B2112,2013-11-21 07:33:00,
2013-11-21 02:38:00,40.6,36.7,30.36,ENE,66,0.0,0.0,86,0.00,,,0.00,LWC V2.00 B2112,2013-11-21 07:38:00,
2013-11-21 02:43:00,40.6,36.7,30.36,ENE,66,0.0,0.0,86,0.00,,,0.00,LWC V2.00 B2112,2013-11-21 07:43:00,
2013-11-21 02:48:00,40.8,36.6,30.36,NNE,26,0.0,0.0,85,0.00,,,0.00,LWC V2.00 B2112,2013-11-21 07:48:00,
2013-11-21 02:53:00,40.8,36.6,30.36,NNE,26,0.0,0.0,85,0.00,,,0.00,LWC V2.00 B2112,2013-11-21 07:53:00,
2013-11-21 02:58:00,40.8,36.6,30.36,NNE,24,0.0,0.0,85,0.00,,,0.00,LWC V2.00 B2112,2013-11-21 07:58:00,
2013-11-21 03:03:00,40.8,36.6,30.36,North,350,0.0,0.0,85,0.00,,,0.00,LWC V2.00 B2112,2013-11-21 08:03:00,
2013-11-21 03:08:00,40.8,36.6,30.36,NW,319,0.0,0.0,85,0.00,,,0.00,LWC V2.00 B2112,2013-11-21 08:08:00,
2013-11-21 03:13:00,40.8,36.6,30.36,NW,319,0.0,0.0,85,0.00,,,0.00,LWC V2.00 B2112,2013-11-21 08:13:00,
2013-11-21 03:18:00,40.8,36.3,30.36,NW,319,0.0,0.0,84,0.00,,,0.00,LWC V2.00 B2112,2013-11-21 08:18:00,
2013-11-21 03:23:00,40.8,36.3,30.36,NW,319,0.0,0.0,84,0.00,,,0.00,LWC V2.00 B2112,2013-11-21 08:23:00,
2013-11-21 03:28:00,40.8,36.3,30.36,NW,306,0.0,0.0,84,0.00,,,0.00,LWC V2.00 B2112,2013-11-21 08:28:00,
2013-11-21 03:33:00,40.6,36.2,30.36,WNW,297,0.0,0.0,84,0.00,,,0.00,LWC V2.00 B2112,2013-11-21 08:33:00,
2013-11-21 03:38:00,40.6,36.2,30.36,WNW,300,0.0,0.0,84,0.00,,,0.00,LWC V2.00 B2112,2013-11-21 08:38:00,
2013-11-21 03:43:00,40.6,36.2,30.36,WNW,300,0.0,0.0,84,0.00,,,0.00,LWC V2.00 B2112,2013-11-21 08:43:00,
2013-11-21 03:48:00,40.6,36.2,30.36,WNW,300,0.0,0.0,84,0.00,,,0.00,LWC V2.00 B2112,2013-11-21 08:48:00,
2013-11-21 03:53:00,40.6,36.2,30.36,WNW,300,0.0,0.0,84,0.00,,,0.00,LWC V2.00 B2112,2013-11-21 08:53:00,
2013-11-21 03:58:00,40.5,36.4,30.36,WNW,300,0.0,0.0,85,0.00,,,0.00,LWC V2.00 B2112,2013-11-21 08:58:00,
2013-11-21 04:03:00,40.5,36.4,30.36,NNE,19,0.0,0.0,85,0.00,,,0.00,LWC V2.00 B2112,2013-11-21 09:03:00,
2013-11-21 04:08:00,40.5,36.4,30.36,NNE,19,0.0,0.0,85,0.00,,,0.00,LWC V2.00 B2112,2013-11-21 09:08:00,
2013-11-21 04:13:00,40.5,36.4,30.36,NNE,19,0.0,0.0,85,0.00,,,0.00,LWC V2.00 B2112,2013-11-21 09:13:00,
2013-11-21 04:18:00,40.5,36.4,30.36,NNE,19,0.0,0.0,85,0.00,,,0.00,LWC V2.00 B2112,2013-11-21 09:18:00,
2013-11-21 04:23:00,40.5,36.4,30.36,North,9,0.0,0.0,85,0.00,,,0.00,LWC V2.00 B2112,2013-11-21 09:23:00,
2013-11-21 04:28:00,40.5,36.4,30.36,North,2,0.0,0.0,85,0.00,,,0.00,LWC V2.00 B2112,2013-11-21 09:28:00,
2013-11-21 04:33:00,40.3,36.2,30.35,NW,307,0.0,0.0,85,0.00,,,0.00,LWC V2.00 B2112,2013-11-21 09:33:00,
2013-11-21 04:38:00,40.3,36.2,30.35,NW,307,0.0,0.0,85,0.00,,,0.00,LWC V2.00 B2112,2013-11-21 09:38:00,
2013-11-21 04:43:00,40.3,36.2,30.35,NW,305,0.0,0.0,85,0.00,,,0.00,LWC V2.00 B2112,2013-11-21 09:43:00,
2013-11-21 04:48:00,40.5,36.4,30.36,NW,305,0.0,0.0,85,0.00,,,0.00,LWC V2.00 B2112,2013-11-21 09:48:00,
2013-11-21 04:53:00,40.5,36.4,30.36,NW,305,0.0,0.0,85,0.00,,,0.00,LWC V2.00 B2112,2013-11-21 09:53:00,
2013-11-21 04:58:00,40.5,36.4,30.36,NW,304,0.0,0.0,85,0.00,,,0.00,LWC V2.00 B2112,2013-11-21 09:58:00,
2013-11-21 05:03:00,40.5,36.4,30.36,NW,304,0.0,0.0,85,0.00,,,0.00,LWC V2.00 B2112,2013-11-21 10:03:00,
2013-11-21 05:08:00,40.5,36.4,30.36,NW,304,0.0,0.0,85,0.00,,,0.00,LWC V2.00 B2112,2013-11-21 10:08:00,
2013-11-21 05:13:00,40.5,36.6,30.36,NW,304,0.0,0.0,86,0.00,,,0.00,LWC V2.00 B2112,2013-11-21 10:13:00,
2013-11-21 05:18:00,40.5,36.6,30.36,WNW,303,0.0,0.0,86,0.00,,,0.00,LWC V2.00 B2112,2013-11-21 10:18:00,
2013-11-21 05:23:00,40.5,36.6,30.36,WNW,303,0.0,0.0,86,0.00,,,0.00,LWC V2.00 B2112,2013-11-21 10:23:00,
2013-11-21 05:28:00,40.5,36.6,30.36,WNW,303,0.0,0.0,86,0.00,,,0.00,LWC V2.00 B2112,2013-11-21 10:28:00,
2013-11-21 05:33:00,40.5,36.6,30.37,WNW,303,0.0,0.0,86,0.00,,,0.00,LWC V2.00 B2112,2013-11-21 10:33:00,
2013-11-21 05:38:00,40.5,36.6,30.37,WNW,288,0.0,0.0,86,0.00,,,0.00,LWC V2.00 B2112,2013-11-21 10:38:00,
2013-11-21 05:43:00,40.5,36.6,30.37,NW,316,0.0,0.0,86,0.00,,,0.00,LWC V2.00 B2112,2013-11-21 10:43:00,
2013-11-21 05:48:00,40.5,36.6,30.38,NW,325,0.0,0.0,86,0.00,,,0.00,LWC V2.00 B2112,2013-11-21 10:48:00,
2013-11-21 05:53:00,40.5,36.6,30.38,NW,325,0.0,0.0,86,0.00,,,0.00,LWC V2.00 B2112,2013-11-21 10:53:00,
2013-11-21 05:58:00,40.5,36.6,30.38,WNW,290,0.0,0.0,86,0.00,,,0.00,LWC V2.00 B2112,2013-11-21 10:58:00,
2013-11-21 06:03:00,40.5,36.6,30.37,WNW,290,0.0,0.0,86,0.00,,,0.00,LWC V2.00 B2112,2013-11-21 11:03:00,
2013-11-21 06:08:00,40.5,36.6,30.37,WNW,290,0.0,0.0,86,0.00,,,0.00,LWC V2.00 B2112,2013-11-21 11:08:00,
2013-11-21 06:13:00,40.6,36.5,30.37,East,79,0.0,0.0,85,0.00,,,0.00,LWC V2.00 B2112,2013-11-21 11:13:00,
2013-11-21 06:18:00,40.6,36.5,30.37,ENE,60,0.0,0.0,85,0.00,,,0.00,LWC V2.00 B2112,2013-11-21 11:18:00,
2013-11-21 06:23:00,40.6,36.5,30.37,NNE,21,0.0,0.0,85,0.00,,,0.00,LWC V2.00 B2112,2013-11-21 11:23:00,
2013-11-21 06:28:00,40.8,36.6,30.37,NNE,18,0.0,0.0,85,0.00,,,0.00,LWC V2.00 B2112,2013-11-21 11:28:00,
2013-11-21 06:33:00,40.8,36.6,30.38,NW,314,0.0,0.0,85,0.00,,,0.00,LWC V2.00 B2112,2013-11-21 11:33:00,
2013-11-21 06:38:00,40.6,36.5,30.38,NNW,345,0.0,0.0,85,0.00,,,0.00,LWC V2.00 B2112,2013-11-21 11:38:00,
2013-11-21 06:43:00,40.6,36.5,30.38,West,265,0.0,0.0,85,0.00,,,0.00,LWC V2.00 B2112,2013-11-21 11:43:00,
2013-11-21 06:48:00,40.8,36.3,30.39,NW,314,0.0,0.0,84,0.00,,,0.00,LWC V2.00 B2112,2013-11-21 11:48:00,
2013-11-21 06:53:00,40.8,36.3,30.39,NW,314,0.0,0.0,84,0.00,,,0.00,LWC V2.00 B2112,2013-11-21 11:53:00,
2013-11-21 06:58:00,40.8,36.3,30.39,NW,314,0.0,0.0,84,0.00,,,0.00,LWC V2.00 B2112,2013-11-21 11:58:00,
2013-11-21 07:03:00,40.8,36.3,30.39,NW,314,0.0,0.0,84,0.00,,,0.00,LWC V2.00 B2112,2013-11-21 12:03:00,
2013-11-21 07:08:00,40.8,36.3,30.39,NW,314,0.0,0.0,84,0.00,,,0.00,LWC V2.00 B2112,2013-11-21 12:08:00,
2013-11-21 07:13:00,40.8,36.3,30.39,NW,314,0.0,0.0,84,0.00,,,0.00,LWC V2.00 B2112,2013-11-21 12:13:00,
2013-11-21 07:18:00,40.8,36.6,30.39,NW,314,0.0,0.0,85,0.00,,,0.00,LWC V2.00 B2112,2013-11-21 12:18:00,
2013-11-21 07:23:00,40.8,36.3,30.39,NW,314,0.0,0.0,84,0.00,,,0.00,LWC V2.00 B2112,2013-11-21 12:23:00,
2013-11-21 07:28:00,40.9,36.4,30.39,NW,314,0.0,0.0,84,0.00,,,0.00,LWC V2.00 B2112,2013-11-21 12:28:00,
2013-11-21 07:33:00,40.9,36.4,30.39,NW,314,0.0,0.0,84,0.00,,,0.00,LWC V2.00 B2112,2013-11-21 12:33:00,
2013-11-21 07:38:00,40.9,36.4,30.39,NW,312,0.0,0.0,84,0.00,,,0.00,LWC V2.00 B2112,2013-11-21 12:38:00,
2013-11-21 07:43:00,40.9,36.4,30.39,NW,312,0.0,0.0,84,0.00,,,0.00,LWC V2.00 B2112,2013-11-21 12:43:00,
2013-11-21 07:48:00,41.1,36.6,30.39,NW,312,0.0,0.0,84,0.00,,,0.00,LWC V2.00 B2112,2013-11-21 12:48:00,
2013-11-21 07:53:00,41.2,36.7,30.39,NW,311,0.0,0.0,84,0.00,,,0.00,LWC V2.00 B2112,2013-11-21 12:53:00,
2013-11-21 07:58:00,41.2,36.4,30.39,ESE,112,0.0,0.0,83,0.00,,,0.00,LWC V2.00 B2112,2013-11-21 12:58:00,
2013-11-21 08:03:00,41.2,36.4,30.39,ESE,112,0.0,0.0,83,0.00,,,0.00,LWC V2.00 B2112,2013-11-21 13:03:00,
2013-11-21 08:08:00,41.1,36.3,30.39,ESE,112,0.0,0.0,83,0.00,,,0.00,LWC V2.00 B2112,2013-11-21 13:08:00,
2013-11-21 08:13:00,41.2,36.7,30.39,ESE,110,0.0,0.0,84,0.00,,,0.00,LWC V2.00 B2112,2013-11-21 13:13:00,
2013-11-21 08:18:00,41.6,36.8,30.38,WNW,293,0.0,0.0,83,0.00,,,0.00,LWC V2.00 B2112,2013-11-21 13:18:00,
2013-11-21 08:28:00,42.5,37.4,30.38,NW,315,0.0,0.0,82,0.00,,,0.00,LWC V2.00 B2112,2013-11-21 13:28:00,
2013-11-21 08:33:00,42.8,37.4,30.40,NW,315,0.0,0.0,81,0.00,,,0.00,LWC V2.00 B2112,2013-11-21 13:33:00,
2013-11-21 08:38:00,42.9,37.5,30.40,NW,314,0.0,0.0,81,0.00,,,0.00,LWC V2.00 B2112,2013-11-21 13:38:00,
2013-11-21 08:43:00,43.1,37.4,30.40,WNW,302,0.0,0.0,80,0.00,,,0.00,LWC V2.00 B2112,2013-11-21 13:43:00,
2013-11-21 08:48:00,43.2,37.5,30.41,NW,317,0.0,0.0,80,0.00,,,0.00,LWC V2.00 B2112,2013-11-21 13:48:00,
2013-11-21 08:53:00,43.3,37.6,30.41,WNW,294,0.0,0.0,80,0.00,,,0.00,LWC V2.00 B2112,2013-11-21 13:53:00,
2013-11-21 08:58:00,43.5,37.7,30.41,WNW,296,0.0,0.0,80,0.00,,,0.00,LWC V2.00 B2112,2013-11-21 13:58:00,
2013-11-21 09:03:00,43.6,37.8,30.41,WNW,296,0.0,0.0,80,0.00,,,0.00,LWC V2.00 B2112,2013-11-21 14:03:00,
2013-11-21 09:08:00,43.8,38.0,30.41,WNW,296,0.0,0.0,80,0.00,,,0.00,LWC V2.00 B2112,2013-11-21 14:08:00,
2013-11-21 09:13:00,43.9,38.1,30.41,WNW,295,0.0,0.0,80,0.00,,,0.00,LWC V2.00 B2112,2013-11-21 14:13:00,
2013-11-21 09:18:00,44.1,38.3,30.42,WNW,295,0.0,0.0,80,0.00,,,0.00,LWC V2.00 B2112,2013-11-21 14:18:00,
2013-11-21 09:23:00,44.1,38.0,30.42,NNE,15,0.0,0.0,79,0.00,,,0.00,LWC V2.00 B2112,2013-11-21 14:23:00,
2013-11-21 09:28:00,44.1,38.0,30.42,NW,311,0.0,0.0,79,0.00,,,0.00,LWC V2.00 B2112,2013-11-21 14:28:00,
2013-11-21 09:33:00,44.1,38.0,30.42,NW,311,0.0,0.0,79,0.00,,,0.00,LWC V2.00 B2112,2013-11-21 14:33:00,
2013-11-21 09:38:00,44.2,38.4,30.42,NW,311,0.0,0.0,80,0.00,,,0.00,LWC V2.00 B2112,2013-11-21 14:38:00,
2013-11-21 09:43:00,44.5,38.7,30.42,NW,309,0.0,0.0,80,0.00,,,0.00,LWC V2.00 B2112,2013-11-21 14:43:00,
2013-11-21 09:48:00,44.9,38.8,30.41,ESE,113,0.0,0.0,79,0.00,,,0.00,LWC V2.00 B2112,2013-11-21 14:48:00,
2013-11-21 09:53:00,45.2,39.1,30.41,NNW,340,0.0,0.0,79,0.00,,,0.00,LWC V2.00 B2112,2013-11-21 14:53:00,
2013-11-21 09:58:00,45.7,39.2,30.41,North,1,0.0,0.0,78,0.00,,,0.00,LWC V2.00 B2112,2013-11-21 14:58:00,
2013-11-21 10:03:00,46.2,39.4,30.40,SE,139,0.0,0.0,77,0.00,,,0.00,LWC V2.00 B2112,2013-11-21 15:03:00,
2013-11-21 10:08:00,46.7,39.5,30.40,SE,139,0.0,0.0,76,0.00,,,0.00,LWC V2.00 B2112,2013-11-21 15:08:00,
2013-11-21 10:13:00,47.6,40.1,30.40,SE,136,0.0,0.0,75,0.00,,,0.00,LWC V2.00 B2112,2013-11-21 15:13:00,
2013-11-21 10:18:00,48.5,40.9,30.40,NNE,13,0.0,0.0,75,0.00,,,0.00,LWC V2.00 B2112,2013-11-21 15:18:00,
2013-11-21 10:23:00,49.2,40.6,30.40,ESE,121,0.0,0.0,72,0.00,,,0.00,LWC V2.00 B2112,2013-11-21 15:23:00,
2013-11-21 10:28:00,49.6,40.9,30.40,WNW,300,0.0,0.0,72,0.00,,,0.00,LWC V2.00 B2112,2013-11-21 15:28:00,
2013-11-21 10:38:00,50.7,40.9,30.39,NNE,29,0.0,2.0,69,0.00,,,0.00,LWC V2.00 B2112,2013-11-21 15:38:00,
2013-11-21 10:43:00,51.3,41.1,30.39,NNE,29,0.0,0.0,68,0.00,,,0.00,LWC V2.00 B2112,2013-11-21 15:43:00,
2013-11-21 10:48:00,51.7,41.5,30.39,North,359,0.0,0.0,68,0.00,,,0.00,LWC V2.00 B2112,2013-11-21 15:48:00,
2013-11-21 10:53:00,52.2,41.2,30.39,North,9,0.0,0.0,66,0.00,,,0.00,LWC V2.00 B2112,2013-11-21 15:53:00,
2013-11-21 10:58:00,52.3,42.8,30.39,NW,307,0.0,0.0,70,0.00,,,0.00,LWC V2.00 B2112,2013-11-21 15:58:00,
2013-11-21 11:03:00,52.6,42.3,30.39,NW,310,0.0,0.0,68,0.00,,,0.00,LWC V2.00 B2112,2013-11-21 16:03:00,
2013-11-21 11:08:00,53.1,42.8,30.39,NW,321,0.0,0.0,68,0.00,,,0.00,LWC V2.00 B2112,2013-11-21 16:08:00,
2013-11-21 11:13:00,53.1,43.2,30.39,NNE,15,0.0,0.0,69,0.00,,,0.00,LWC V2.00 B2112,2013-11-21 16:13:00,
2013-11-21 11:18:00,53.2,42.5,30.39,NW,326,0.0,0.0,67,0.00,,,0.00,LWC V2.00 B2112,2013-11-21 16:18:00,
2013-11-21 11:23:00,53.3,42.6,30.39,WNW,298,0.0,0.0,67,0.00,,,0.00,LWC V2.00 B2112,2013-11-21 16:23:00,
2013-11-21 11:28:00,54.1,43.0,30.39,WNW,295,0.0,0.0,66,0.00,,,0.00,LWC V2.00 B2112,2013-11-21 16:28:00,
2013-11-21 11:33:00,55.0,43.5,30.37,SE,142,0.0,0.0,65,0.00,,,0.00,LWC V2.00 B2112,2013-11-21 16:33:00,
2013-11-21 11:38:00,55.4,43.4,30.37,WNW,301,0.0,0.0,64,0.00,,,0.00,LWC V2.00 B2112,2013-11-21 16:38:00,
2013-11-21 11:43:00,55.7,44.1,30.37,ENE,58,0.0,0.0,65,0.00,,,0.00,LWC V2.00 B2112,2013-11-21 16:43:00,
2013-11-21 11:48:00,56.0,44.4,30.37,NNW,343,0.0,0.0,65,0.00,,,0.00,LWC V2.00 B2112,2013-11-21 16:48:00,
2013-11-21 11:53:00,56.2,44.6,30.37,NNW,343,0.0,0.0,65,0.00,,,0.00,LWC V2.00 B2112,2013-11-21 16:53:00,
2013-11-21 11:58:00,56.0,44.0,30.37,NE,53,0.0,0.0,64,0.00,,,0.00,LWC V2.00 B2112,2013-11-21 16:58:00,
2013-11-21 12:03:00,56.2,43.8,30.36,NE,54,0.0,0.0,63,0.00,,,0.00,LWC V2.00 B2112,2013-11-21 17:03:00,
2013-11-21 12:08:00,56.5,44.1,30.36,NNE,23,0.0,0.0,63,0.00,,,0.00,LWC V2.00 B2112,2013-11-21 17:08:00,
2013-11-21 12:13:00,56.3,44.7,30.36,NNE,26,0.0,0.0,65,0.00,,,0.00,LWC V2.00 B2112,2013-11-21 17:13:00,
2013-11-21 12:18:00,56.3,44.3,30.35,NW,319,0.0,0.0,64,0.00,,,0.00,LWC V2.00 B2112,2013-11-21 17:18:00,
2013-11-21 12:23:00,56.5,44.9,30.35,NW,319,0.0,0.0,65,0.00,,,0.00,LWC V2.00 B2112,2013-11-21 17:23:00,
2013-11-21 12:28:00,56.6,44.2,30.35,NW,319,0.0,0.0,63,0.00,,,0.00,LWC V2.00 B2112,2013-11-21 17:28:00,
2013-11-21 12:33:00,56.6,45.0,30.35,NW,319,0.0,0.0,65,0.00,,,0.00,LWC V2.00 B2112,2013-11-21 17:33:00,
2013-11-21 12:38:00,57.0,44.5,30.35,NW,319,0.0,0.0,63,0.00,,,0.00,LWC V2.00 B2112,2013-11-21 17:38:00,
2013-11-21 12:43:00,57.2,44.7,30.35,ENE,63,0.0,0.0,63,0.00,,,0.00,LWC V2.00 B2112,2013-11-21 17:43:00,
2013-11-21 12:48:00,57.0,45.8,30.34,ENE,63,0.0,0.0,66,0.00,,,0.00,LWC V2.00 B2112,2013-11-21 17:48:00,
2013-11-21 12:53:00,57.3,46.0,30.34,ENE,63,0.0,0.0,66,0.00,,,0.00,LWC V2.00 B2112,2013-11-21 17:53:00,
2013-11-21 12:58:00,57.6,45.5,30.34,ENE,63,0.0,0.0,64,0.00,,,0.00,LWC V2.00 B2112,2013-11-21 17:58:00,
2013-11-21 13:03:00,57.5,45.0,30.34,ENE,69,0.0,0.0,63,0.00,,,0.00,LWC V2.00 B2112,2013-11-21 18:03:00,
2013-11-21 13:08:00,57.6,45.5,30.34,ENE,69,0.0,0.0,64,0.00,,,0.00,LWC V2.00 B2112,2013-11-21 18:08:00,
2013-11-21 13:13:00,57.8,45.3,30.34,ENE,69,0.0,0.0,63,0.00,,,0.00,LWC V2.00 B2112,2013-11-21 18:13:00,
2013-11-21 13:18:00,58.1,46.0,30.33,NE,51,0.0,0.0,64,0.00,,,0.00,LWC V2.00 B2112,2013-11-21 18:18:00,
2013-11-21 13:23:00,58.3,45.8,30.33,NE,51,0.0,0.0,63,0.00,,,0.00,LWC V2.00 B2112,2013-11-21 18:23:00,
2013-11-21 13:28:00,58.4,45.9,30.33,NE,51,0.0,0.0,63,0.00,,,0.00,LWC V2.00 B2112,2013-11-21 18:28:00,
2013-11-21 13:33:00,58.7,45.3,30.33,NE,51,0.0,0.0,61,0.00,,,0.00,LWC V2.00 B2112,2013-11-21 18:33:00,
2013-11-21 13:38:00,58.7,45.7,30.33,NE,51,0.0,0.0,62,0.00,,,0.00,LWC V2.00 B2112,2013-11-21 18:38:00,
2013-11-21 13:43:00,58.9,45.9,30.33,NE,51,0.0,0.0,62,0.00,,,0.00,LWC V2.00 B2112,2013-11-21 18:43:00,
2013-11-21 13:48:00,59.2,46.2,30.32,NE,51,0.0,0.0,62,0.00,,,0.00,LWC V2.00 B2112,2013-11-21 18:48:00,
2013-11-21 13:53:00,59.5,46.9,30.32,NE,51,0.0,0.0,63,0.00,,,0.00,LWC V2.00 B2112,2013-11-21 18:53:00,
2013-11-21 13:58:00,59.8,46.8,30.32,NE,51,0.0,0.0,62,0.00,,,0.00,LWC V2.00 B2112,2013-11-21 18:58:00,
2013-11-21 14:03:00,59.8,47.2,30.31,NE,52,0.0,0.0,63,0.00,,,0.00,LWC V2.00 B2112,2013-11-21 19:03:00,
2013-11-21 14:08:00,59.5,46.9,30.31,NE,52,0.0,0.0,63,0.00,,,0.00,LWC V2.00 B2112,2013-11-21 19:08:00,
2013-11-21 14:13:00,59.3,46.7,30.31,NE,52,0.0,0.0,63,0.00,,,0.00,LWC V2.00 B2112,2013-11-21 19:13:00,
2013-11-21 14:18:00,59.5,47.3,30.31,SW,218,0.0,0.0,64,0.00,,,0.00,LWC V2.00 B2112,2013-11-21 19:18:00,
2013-11-21 14:23:00,59.3,47.1,30.31,SW,221,0.0,0.0,64,0.00,,,0.00,LWC V2.00 B2112,2013-11-21 19:23:00,
2013-11-21 14:28:00,59.2,47.8,30.31,SW,221,0.0,0.0,66,0.00,,,0.00,LWC V2.00 B2112,2013-11-21 19:28:00,
2013-11-21 14:38:00,59.5,47.3,30.31,SW,221,0.0,0.0,64,0.00,,,0.00,LWC V2.00 B2112,2013-11-21 19:38:00,
2013-11-21 14:43:00,59.3,47.1,30.31,SW,221,0.0,0.0,64,0.00,,,0.00,LWC V2.00 B2112,2013-11-21 19:43:00,
2013-11-21 14:48:00,59.3,47.1,30.31,SW,221,0.0,0.0,64,0.00,,,0.00,LWC V2.00 B2112,2013-11-21 19:48:00,
2013-11-21 14:53:00,59.2,47.4,30.31,SW,221,0.0,0.0,65,0.00,,,0.00,LWC V2.00 B2112,2013-11-21 19:53:00,
2013-11-21 14:58:00,58.9,46.7,30.31,SW,221,0.0,0.0,64,0.00,,,0.00,LWC V2.00 B2112,2013-11-21 19:58:00,
2013-11-21 15:03:00,58.7,47.4,30.30,SW,221,0.0,0.0,66,0.00,,,0.00,LWC V2.00 B2112,2013-11-21 20:03:00,
2013-11-21 15:08:00,58.9,47.6,30.30,SW,221,0.0,0.0,66,0.00,,,0.00,LWC V2.00 B2112,2013-11-21 20:08:00,
2013-11-21 15:13:00,58.9,47.6,30.30,SW,221,0.0,0.0,66,0.00,,,0.00,LWC V2.00 B2112,2013-11-21 20:13:00,
2013-11-21 15:18:00,58.9,48.0,30.31,SW,221,0.0,0.0,67,0.00,,,0.00,LWC V2.00 B2112,2013-11-21 20:18:00,
2013-11-21 15:23:00,58.9,47.6,30.31,SW,221,0.0,0.0,66,0.00,,,0.00,LWC V2.00 B2112,2013-11-21 20:23:00,
2013-11-21 15:28:00,58.7,47.8,30.31,SW,221,0.0,0.0,67,0.00,,,0.00,LWC V2.00 B2112,2013-11-21 20:28:00,
2013-11-21 15:33:00,58.7,47.8,30.31,SW,221,0.0,0.0,67,0.00,,,0.00,LWC V2.00 B2112,2013-11-21 20:33:00,
2013-11-21 15:38:00,58.6,47.7,30.31,SW,221,0.0,0.0,67,0.00,,,0.00,LWC V2.00 B2112,2013-11-21 20:38:00,
2013-11-21 15:43:00,58.4,47.5,30.31,SW,221,0.0,0.0,67,0.00,,,0.00,LWC V2.00 B2112,2013-11-21 20:43:00,
2013-11-21 15:48:00,58.3,47.4,30.31,SW,221,0.0,0.0,67,0.00,,,0.00,LWC V2.00 B2112,2013-11-21 20:48:00,
2013-11-21 15:53:00,58.3,47.8,30.31,SW,221,0.0,0.0,68,0.00,,,0.00,LWC V2.00 B2112,2013-11-21 20:53:00,
2013-11-21 15:58:00,58.0,47.5,30.31,SW,221,0.0,0.0,68,0.00,,,0.00,LWC V2.00 B2112,2013-11-21 20:58:00,
2013-11-21 16:03:00,58.0,47.9,30.31,SW,221,0.0,0.0,69,0.00,,,0.00,LWC V2.00 B2112,2013-11-21 21:03:00,
2013-11-21 16:08:00,58.3,47.4,30.31,SW,221,0.0,0.0,67,0.00,,,0.00,LWC V2.00 B2112,2013-11-21 21:08:00,
2013-11-21 16:13:00,58.4,47.1,30.31,SW,221,0.0,0.0,66,0.00,,,0.00,LWC V2.00 B2112,2013-11-21 21:13:00,
2013-11-21 16:18:00,58.6,47.3,30.31,SW,221,0.0,0.0,66,0.00,,,0.00,LWC V2.00 B2112,2013-11-21 21:18:00,
2013-11-21 16:23:00,58.4,47.5,30.31,SW,221,0.0,0.0,67,0.00,,,0.00,LWC V2.00 B2112,2013-11-21 21:23:00,
2013-11-21 16:28:00,58.3,47.0,30.31,SW,221,0.0,0.0,66,0.00,,,0.00,LWC V2.00 B2112,2013-11-21 21:28:00,
2013-11-21 16:33:00,58.1,47.2,30.31,SW,221,0.0,0.0,67,0.00,,,0.00,LWC V2.00 B2112,2013-11-21 21:33:00,
2013-11-21 16:38:00,57.8,47.3,30.31,SW,221,0.0,0.0,68,0.00,,,0.00,LWC V2.00 B2112,2013-11-21 21:38:00,
2013-11-21 16:43:00,57.5,47.4,30.31,SW,221,0.0,0.0,69,0.00,,,0.00,LWC V2.00 B2112,2013-11-21 21:43:00,
2013-11-21 16:48:00,57.0,47.3,30.32,SW,221,0.0,0.0,70,0.00,,,0.00,LWC V2.00 B2112,2013-11-21 21:48:00,
2013-11-21 16:53:00,56.6,47.3,30.32,SW,221,0.0,0.0,71,0.00,,,0.00,LWC V2.00 B2112,2013-11-21 21:53:00,
2013-11-21 16:58:00,56.2,47.3,30.32,SW,221,0.0,0.0,72,0.00,,,0.00,LWC V2.00 B2112,2013-11-21 21:58:00,
2013-11-21 17:03:00,55.9,47.0,30.32,SW,221,0.0,0.0,72,0.00,,,0.00,LWC V2.00 B2112,2013-11-21 22:03:00,
2013-11-21 17:08:00,55.6,47.1,30.32,SW,221,0.0,0.0,73,0.00,,,0.00,LWC V2.00 B2112,2013-11-21 22:08:00,
2013-11-21 17:13:00,55.4,47.3,30.32,SW,221,0.0,0.0,74,0.00,,,0.00,LWC V2.00 B2112,2013-11-21 22:13:00,
2013-11-21 17:18:00,55.1,47.0,30.32,SW,221,0.0,0.0,74,0.00,,,0.00,LWC V2.00 B2112,2013-11-21 22:18:00,
2013-11-21 17:23:00,55.0,47.2,30.32,SW,221,0.0,0.0,75,0.00,,,0.00,LWC V2.00 B2112,2013-11-21 22:23:00,
2013-11-21 17:28:00,54.8,47.4,30.32,SW,221,0.0,0.0,76,0.00,,,0.00,LWC V2.00 B2112,2013-11-21 22:28:00,
2013-11-21 17:33:00,54.8,47.7,30.32,SW,221,0.0,0.0,77,0.00,,,0.00,LWC V2.00 B2112,2013-11-21 22:33:00,
2013-11-21 17:38:00,54.7,47.6,30.32,SW,221,0.0,0.0,77,0.00,,,0.00,LWC V2.00 B2112,2013-11-21 22:38:00,
2013-11-21 17:43:00,54.7,47.6,30.32,SW,221,0.0,0.0,77,0.00,,,0.00,LWC V2.00 B2112,2013-11-21 22:43:00,
2013-11-21 17:48:00,54.5,47.8,30.32,SW,221,0.0,0.0,78,0.00,,,0.00,LWC V2.00 B2112,2013-11-21 22:48:00,
2013-11-21 17:53:00,54.4,47.7,30.32,SW,221,0.0,0.0,78,0.00,,,0.00,LWC V2.00 B2112,2013-11-21 22:53:00,
2013-11-21 17:58:00,54.4,47.7,30.32,SW,221,0.0,0.0,78,0.00,,,0.00,LWC V2.00 B2112,2013-11-21 22:58:00,
2013-11-21 18:03:00,54.1,47.4,30.32,SW,221,0.0,0.0,78,0.00,,,0.00,LWC V2.00 B2112,2013-11-21 23:03:00,
2013-11-21 18:08:00,53.8,47.4,30.32,SW,221,0.0,0.0,79,0.00,,,0.00,LWC V2.00 B2112,2013-11-21 23:08:00,
2013-11-21 18:13:00,53.3,47.0,30.32,SW,221,0.0,0.0,79,0.00,,,0.00,LWC V2.00 B2112,2013-11-21 23:13:00,
2013-11-21 18:18:00,53.1,47.1,30.31,SW,221,0.0,0.0,80,0.00,,,0.00,LWC V2.00 B2112,2013-11-21 23:18:00,
2013-11-21 18:23:00,52.9,46.9,30.31,SW,221,0.0,0.0,80,0.00,,,0.00,LWC V2.00 B2112,2013-11-21 23:23:00,
2013-11-21 18:28:00,52.9,47.2,30.31,SW,221,0.0,0.0,81,0.00,,,0.00,LWC V2.00 B2112,2013-11-21 23:28:00,
2013-11-21 18:33:00,52.8,47.1,30.32,SW,221,0.0,0.0,81,0.00,,,0.00,LWC V2.00 B2112,2013-11-21 23:33:00,
2013-11-21 18:38:00,52.8,46.8,30.32,SW,221,0.0,0.0,80,0.00,,,0.00,LWC V2.00 B2112,2013-11-21 23:38:00,
2013-11-21 18:43:00,52.6,46.6,30.32,SW,221,0.0,0.0,80,0.00,,,0.00,LWC V2.00 B2112,2013-11-21 23:43:00,
2013-11-21 18:48:00,52.5,46.8,30.32,SW,221,0.0,0.0,81,0.00,,,0.00,LWC V2.00 B2112,2013-11-21 23:48:00,
2013-11-21 18:53:00,52.2,46.5,30.32,SW,221,0.0,0.0,81,0.00,,,0.00,LWC V2.00 B2112,2013-11-21 23:53:00,
2013-11-21 18:58:00,51.9,46.3,30.32,SW,221,0.0,0.0,81,0.00,,,0.00,LWC V2.00 B2112,2013-11-21 23:58:00,
2013-11-21 19:03:00,51.6,46.0,30.32,SW,221,0.0,0.0,81,0.00,,,0.00,LWC V2.00 B2112,2013-11-22 00:03:00,
2013-11-21 19:08:00,51.1,45.8,30.32,SW,221,0.0,0.0,82,0.00,,,0.00,LWC V2.00 B2112,2013-11-22 00:08:00,
2013-11-21 19:13:00,50.8,45.8,30.32,SW,221,0.0,0.0,83,0.00,,,0.00,LWC V2.00 B2112,2013-11-22 00:13:00,
2013-11-21 19:18:00,50.7,46.0,30.32,SW,221,0.0,0.0,84,0.00,,,0.00,LWC V2.00 B2112,2013-11-22 00:18:00,
2013-11-21 19:23:00,50.5,46.2,30.32,SW,221,0.0,0.0,85,0.00,,,0.00,LWC V2.00 B2112,2013-11-22 00:23:00,
2013-11-21 19:28:00,50.4,46.4,30.32,SW,221,0.0,0.0,86,0.00,,,0.00,LWC V2.00 B2112,2013-11-22 00:28:00,
2013-11-21 19:33:00,50.2,46.2,30.32,SW,221,0.0,0.0,86,0.00,,,0.00,LWC V2.00 B2112,2013-11-22 00:33:00,
2013-11-21 19:38:00,50.2,46.2,30.32,SW,221,0.0,0.0,86,0.00,,,0.00,LWC V2.00 B2112,2013-11-22 00:38:00,
2013-11-21 19:43:00,50.2,46.2,30.32,SW,221,0.0,0.0,86,0.00,,,0.00,LWC V2.00 B2112,2013-11-22 00:43:00,
2013-11-21 19:48:00,50.2,46.2,30.32,SW,221,0.0,0.0,86,0.00,,,0.00,LWC V2.00 B2112,2013-11-22 00:48:00,
2013-11-21 19:53:00,50.2,46.2,30.32,SW,221,0.0,0.0,86,0.00,,,0.00,LWC V2.00 B2112,2013-11-22 00:53:00,
2013-11-21 19:58:00,50.2,46.2,30.32,SW,221,0.0,0.0,86,0.00,,,0.00,LWC V2.00 B2112,2013-11-22 00:58:00,
2013-11-21 20:03:00,50.4,46.4,30.32,SW,221,0.0,0.0,86,0.00,,,0.00,LWC V2.00 B2112,2013-11-22 01:03:00,
2013-11-21 20:08:00,50.4,46.4,30.32,SW,221,0.0,0.0,86,0.00,,,0.00,LWC V2.00 B2112,2013-11-22 01:08:00,
2013-11-21 20:13:00,50.5,46.5,30.32,SW,221,0.0,0.0,86,0.00,,,0.00,LWC V2.00 B2112,2013-11-22 01:13:00,
2013-11-21 20:18:00,50.5,46.5,30.32,SW,221,0.0,0.0,86,0.00,,,0.00,LWC V2.00 B2112,2013-11-22 01:18:00,
2013-11-21 20:23:00,50.7,46.7,30.32,SW,221,0.0,0.0,86,0.00,,,0.00,LWC V2.00 B2112,2013-11-22 01:23:00,
2013-11-21 20:28:00,50.8,46.5,30.32,SW,221,0.0,0.0,85,0.00,,,0.00,LWC V2.00 B2112,2013-11-22 01:28:00,
2013-11-21 20:33:00,51.0,46.3,30.32,SW,221,0.0,0.0,84,0.00,,,0.00,LWC V2.00 B2112,2013-11-22 01:33:00,
2013-11-21 20:38:00,51.1,46.1,30.32,SW,221,0.0,0.0,83,0.00,,,0.00,LWC V2.00 B2112,2013-11-22 01:38:00,
2013-11-21 20:43:00,51.3,46.0,30.32,SW,221,0.0,0.0,82,0.00,,,0.00,LWC V2.00 B2112,2013-11-22 01:43:00,
2013-11-21 20:48:00,51.4,45.8,30.31,SW,221,0.0,0.0,81,0.00,,,0.00,LWC V2.00 B2112,2013-11-22 01:48:00,
2013-11-21 20:53:00,51.6,45.6,30.31,SW,221,0.0,0.0,80,0.00,,,0.00,LWC V2.00 B2112,2013-11-22 01:53:00,
2013-11-21 20:58:00,51.7,45.7,30.31,SW,221,0.0,0.0,80,0.00,,,0.00,LWC V2.00 B2112,2013-11-22 01:58:00,
2013-11-21 21:03:00,52.0,45.7,30.32,SW,221,0.0,0.0,79,0.00,,,0.00,LWC V2.00 B2112,2013-11-22 02:03:00,
2013-11-21 21:08:00,52.2,45.9,30.32,SW,221,0.0,0.0,79,0.00,,,0.00,LWC V2.00 B2112,2013-11-22 02:08:00,
2013-11-21 21:13:00,52.2,45.5,30.32,SW,221,0.0,0.0,78,0.00,,,0.00,LWC V2.00 B2112,2013-11-22 02:13:00,
2013-11-21 21:18:00,52.2,45.5,30.32,SW,221,0.0,0.0,78,0.00,,,0.00,LWC V2.00 B2112,2013-11-22 02:18:00,
2013-11-21 21:23:00,52.3,45.6,30.32,SW,221,0.0,0.0,78,0.00,,,0.00,LWC V2.00 B2112,2013-11-22 02:23:00,
2013-11-21 21:28:00,52.3,45.6,30.32,SW,221,0.0,0.0,78,0.00,,,0.00,LWC V2.00 B2112,2013-11-22 02:28:00,
2013-11-21 21:33:00,52.5,45.8,30.32,SW,221,0.0,0.0,78,0.00,,,0.00,LWC V2.00 B2112,2013-11-22 02:33:00,
2013-11-21 21:38:00,52.6,45.9,30.32,SW,221,0.0,0.0,78,0.00,,,0.00,LWC V2.00 B2112,2013-11-22 02:38:00,
2013-11-21 21:43:00,52.6,45.9,30.32,SW,221,0.0,0.0,78,0.00,,,0.00,LWC V2.00 B2112,2013-11-22 02:43:00,
2013-11-21 21:48:00,52.8,46.1,30.31,SW,221,0.0,0.0,78,0.00,,,0.00,LWC V2.00 B2112,2013-11-22 02:48:00,
2013-11-21 21:53:00,52.8,46.1,30.31,SW,221,0.0,0.0,78,0.00,,,0.00,LWC V2.00 B2112,2013-11-22 02:53:00,
2013-11-21 21:58:00,52.9,46.2,30.31,SW,221,0.0,0.0,78,0.00,,,0.00,LWC V2.00 B2112,2013-11-22 02:58:00,
2013-11-21 22:03:00,52.9,46.2,30.32,SW,221,0.0,0.0,78,0.00,,,0.00,LWC V2.00 B2112,2013-11-22 03:03:00,
2013-11-21 22:08:00,52.9,46.2,30.32,SW,221,0.0,0.0,78,0.00,,,0.00,LWC V2.00 B2112,2013-11-22 03:08:00,
2013-11-21 22:13:00,52.8,46.5,30.32,SW,221,0.0,0.0,79,0.00,,,0.00,LWC V2.00 B2112,2013-11-22 03:13:00,
2013-11-21 22:18:00,52.8,46.5,30.30,SW,221,0.0,0.0,79,0.00,,,0.00,LWC V2.00 B2112,2013-11-22 03:18:00,
2013-11-21 22:23:00,52.6,46.3,30.30,SW,221,0.0,0.0,79,0.00,,,0.00,LWC V2.00 B2112,2013-11-22 03:23:00,
2013-11-21 22:28:00,52.5,46.2,30.30,SW,221,0.0,0.0,79,0.00,,,0.00,LWC V2.00 B2112,2013-11-22 03:28:00,
2013-11-21 22:33:00,52.3,46.0,30.30,SW,221,0.0,0.0,79,0.00,,,0.00,LWC V2.00 B2112,2013-11-22 03:33:00,
2013-11-21 22:38:00,52.0,46.0,30.30,SW,221,0.0,0.0,80,0.00,,,0.00,LWC V2.00 B2112,2013-11-22 03:38:00,
2013-11-21 22:43:00,51.7,46.1,30.30,SW,221,0.0,0.0,81,0.00,,,0.00,LWC V2.00 B2112,2013-11-22 03:43:00,
2013-11-21 22:48:00,51.4,45.8,30.30,SW,221,0.0,0.0,81,0.00,,,0.00,LWC V2.00 B2112,2013-11-22 03:48:00,
2013-11-21 22:53:00,51.1,45.8,30.30,SW,221,0.0,0.0,82,0.00,,,0.00,LWC V2.00 B2112,2013-11-22 03:53:00,
2013-11-21 22:58:00,50.7,45.4,30.30,SW,221,0.0,0.0,82,0.00,,,0.00,LWC V2.00 B2112,2013-11-22 03:58:00,
2013-11-21 23:03:00,50.4,45.1,30.30,SW,221,0.0,0.0,82,0.00,,,0.00,LWC V2.00 B2112,2013-11-22 04:03:00,
2013-11-21 23:08:00,50.1,45.1,30.30,SW,221,0.0,0.0,83,0.00,,,0.00,LWC V2.00 B2112,2013-11-22 04:08:00,
2013-11-21 23:13:00,49.8,44.8,30.30,SW,221,0.0,0.0,83,0.00,,,0.00,LWC V2.00 B2112,2013-11-22 04:13:00,
2013-11-21 23:18:00,49.5,44.9,30.30,SW,221,0.0,0.0,84,0.00,,,0.00,LWC V2.00 B2112,2013-11-22 04:18:00,
2013-11-21 23:23:00,49.2,44.9,30.30,SW,221,0.0,0.0,85,0.00,,,0.00,LWC V2.00 B2112,2013-11-22 04:23:00,
2013-11-21 23:28:00,48.9,44.9,30.30,SW,221,0.0,0.0,86,0.00,,,0.00,LWC V2.00 B2112,2013-11-22 04:28:00,
2013-11-21 23:33:00,48.5,44.8,30.30,SW,221,0.0,0.0,87,0.00,,,0.00,LWC V2.00 B2112,2013-11-22 04:33:00,
2013-11-21 23:38:00,48.2,44.8,30.30,SW,221,0.0,0.0,88,0.00,,,0.00,LWC V2.00 B2112,2013-11-22 04:38:00,
2013-11-21 23:43:00,48.0,44.9,30.30,SW,221,0.0,0.0,89,0.00,,,0.00,LWC V2.00 B2112,2013-11-22 04:43:00,
2013-11-21 23:48:00,47.9,44.8,30.30,SW,221,0.0,0.0,89,0.00,,,0.00,LWC V2.00 B2112,2013-11-22 04:48:00,
2013-11-21 23:53:00,47.6,44.5,30.30,SW,221,0.0,0.0,89,0.00,,,0.00,LWC V2.00 B2112,2013-11-22 04:53:00,
2013-11-21 23:58:00,47.3,44.5,30.30,SW,221,0.0,0.0,90,0.00,,,0.00,LWC V2.00 B2112,2013-11-22 04:58:00,